This is the latest recevied weather packets stored in our database for station/object G1YBJ-13. If no packets are shown the sender has not sent any weather packets the latest 10 day(s).
| Time | Temp. | Humidity | Pressure | Rain* | Wind** | Luminosity | Snow |
|---|---|---|---|---|---|---|---|
| 1777598240 | 7.78° C | 62% | 1021.7 hPa | - | - | - | - |
| 1777597337 | 8.33° C | 62% | 1021.8 hPa | - | - | - | - |
| 1777596436 | 8.89° C | 61% | 1021.7 hPa | - | - | - | - |
| 1777595534 | 8.89° C | 60% | 1021.8 hPa | - | - | - | - |
| 1777594633 | 9.44° C | 60% | 1022 hPa | - | - | - | - |
| 1777593732 | 9.44° C | 59% | 1021.9 hPa | - | - | - | - |
| 1777592830 | 9.44° C | 59% | 1021.8 hPa | - | - | - | - |
| 1777591928 | 10° C | 59% | 1021.8 hPa | - | - | - | - |
| 1777591027 | 10° C | 58% | 1021.7 hPa | - | - | - | - |
| 1777590125 | 10.56° C | 58% | 1021.8 hPa | - | - | - | - |
| 1777589225 | 10.56° C | 57% | 1021.9 hPa | - | - | - | - |
| 1777588322 | 11.11° C | 56% | 1021.9 hPa | - | - | - | - |
| 1777587421 | 11.11° C | 56% | 1022 hPa | - | - | - | - |
| 1777586520 | 11.11° C | 55% | 1022.1 hPa | - | - | - | - |
| 1777585618 | 11.67° C | 55% | 1022.2 hPa | - | - | - | - |
| 1777584716 | 12.22° C | 54% | 1022.2 hPa | - | - | - | - |
| 1777583814 | 12.22° C | 52% | 1022.2 hPa | - | - | - | - |
| 1777582913 | 12.78° C | 52% | 1022.1 hPa | - | - | - | - |
| 1777582012 | 12.78° C | 51% | 1022.1 hPa | - | - | - | - |
| 1777581111 | 13.33° C | 51% | 1022 hPa | - | - | - | - |
| 1777580209 | 13.33° C | 51% | 1022.1 hPa | - | - | - | - |
| 1777579308 | 13.89° C | 50% | 1022 hPa | - | - | - | - |
| 1777578407 | 14.44° C | 50% | 1021.9 hPa | - | - | - | - |
| 1777576589 | 15.56° C | 48% | 1021.8 hPa | - | - | - | - |
| 1777575687 | 16.67° C | 47% | 1021.7 hPa | - | - | - | - |
* Rain since midnight (hover to see other rain measurements)
** Current wind speed in m/s (hover to see current wind gust speed)